Torna al catalogo

STARLINK-33887

AttivoComunicazioniVLEO
NORAD 63680·PAYLOAD·🇺🇸 United States

Lanciato Apr 28, 2025 da Cape Canaveral Space Force Station

Loading…

Prossimi Passaggi (prossime 24 ore)

TLE

AggiornatoSource: CelesTrak SupGP

Epoca: Sep 15, 2026, 03:03 UTC

1 63680C 25085S   26258.12756944 -.00019430  00000+0 -70361-3 0  2580
2 63680  43.0033  40.6219 0001333 264.7199 221.7932 15.27595594    17

Traccia STARLINK-33887 in tempo reale con AllMySat

Download on the App Store